Location: Karcze
(52.0945°N, 22.4786°E)
Time: 08:51:38
(UTC+00:00)

Transit 2A Rocket - Visible Passes

Search period start: 24 July 2021 00:00
Search period end: 03 August 2021 00:00
Orbit: 590 x 913 km, 66.7° (Epoch: 23 July)

Date Brightness Start Highest point End Pass type
(mag) Time Alt. Az. Time Alt. Az. Time Alt. Az.
24 Jul 7.4 19:40:10 10° NNW 19:43:35 18° NNE 19:47:10 10° NE visible
24 Jul 6.3 21:22:40 10° NNW 21:27:33 38° NE 21:32:49 10° ESE visible
24 Jul 5.2 23:05:09 10° NW 23:10:25 60° WSW 23:13:18 29° S visible
25 Jul 7.0 00:50:00 10° W 00:52:08 12° WSW 00:53:08 12° WSW visible
25 Jul 6.7 20:40:06 10° NNW 20:44:38 29° NNE 20:49:29 10° E visible
25 Jul 5.1 22:22:27 10° NW 22:27:49 87° SW 22:31:08 26° SE visible
26 Jul 6.6 00:05:59 10° WNW 00:09:51 20° WSW 00:11:00 19° SW visible
26 Jul 7.0 19:57:30 10° NNW 20:01:37 23° NNE 20:06:01 10° ENE visible
26 Jul 5.4 21:39:49 10° NW 21:45:07 65° NE 21:49:04 20° SE visible
26 Jul 6.1 23:22:46 10° NW 23:27:29 30° WSW 23:28:55 27° SW visible
27 Jul 7.2 19:14:50 10° NNW 19:18:32 20° NNE 19:22:27 10° ENE visible
27 Jul 5.9 20:57:14 10° NNW 21:02:20 46° NE 21:07:04 14° ESE visible
27 Jul 5.6 22:39:51 10° NW 22:45:01 46° WSW 22:46:56 34° SSW visible
28 Jul 6.4 20:14:39 10° NNW 20:19:28 34° NE 20:24:38 10° E visible
28 Jul 5.2 21:57:05 10° NW 22:02:27 69° SW 22:05:01 34° SSE visible
28 Jul 7.0 23:41:17 10° WNW 23:44:16 15° WSW 23:44:52 15° WSW visible
29 Jul 6.7 19:32:04 10° NNW 19:36:30 27° NNE 19:41:14 10° E visible
29 Jul 5.1 21:14:24 10° NW 21:19:49 82° NE 21:23:08 26° SE visible
29 Jul 6.5 22:57:42 10° WNW 23:01:58 23° WSW 23:03:00 22° SW visible
30 Jul 5.5 20:31:48 10° NW 20:37:05 58° NE 20:41:19 18° ESE visible
30 Jul 6.0 22:14:36 10° NW 22:19:33 35° WSW 22:21:11 30° SSW visible
31 Jul 6.0 19:49:13 10° NNW 19:54:15 42° NE 19:59:32 11° ESE visible
31 Jul 5.5 21:31:45 10° NW 21:37:03 53° WSW 21:39:25 33° S visible
31 Jul 7.3 23:17:28 10° W 23:18:39 11° WSW 23:19:17 10° WSW visible
01 Aug 6.4 19:06:38 10° NNW 19:11:21 32° NNE 19:16:25 10° E visible
01 Aug 5.2 20:49:02 10° NW 20:54:28 79° SW 20:57:41 28° SSE visible
01 Aug 6.9 22:32:48 10° WNW 22:36:25 18° WSW 22:37:34 17° WSW visible
02 Aug 5.3 20:06:23 10° NW 20:11:47 73° NE 20:16:00 19° SE visible
02 Aug 6.5 21:49:28 10° WNW 21:54:04 27° WSW 21:55:53 23° SW visible
